Change the Weather History Date:

Friday, January 11, 2013

  Actual Average Record
Temperature  
Mean Temperature 54 °F -  
Max Temperature 63 °F 37 °F 70 °F (1990)
Min Temperature 46 °F 17 °F -13 °F (1982)
Degree Days  
Heating Degree Days 10    
Growing Degree Days 4 (Base 50)    
Moisture  
Dew Point 45 °F    
Average Humidity 77    
Maximum Humidity 94    
Minimum Humidity 52    
Precipitation  
Precipitation 0.00 in - - ()
Sea Level Pressure  
Sea Level Pressure 29.74 in    
Wind  
Wind Speed 11 mph (South)    
Max Wind Speed 18 mph    
Max Gust Speed 31 mph    
Visibility 9 miles    
Events      
Averages and records for this station are not official NWS values.
T = Trace of Precipitation, MM = Missing Value Source: NWS Daily Summary

Daily Weather History Graph

Daily Weather History Graph

Search for Another Location

Airport or City:

Trip Planner

Search our weather history database for the weather conditions in past years. The results will help you decide how hot, cold, wet, or windy it might be!

Date:

Astronomy

Jan. 11, 2013 Rise Set
Actual Time 7:36 AM CST 5:24 PM CST
Civil Twilight 7:07 AM CST 5:53 PM CST
Nautical Twilight 6:35 AM CST 6:25 PM CST
Astronomical Twilight 6:03 AM CST 6:56 PM CST
Moon 7:10 AM CST (1/11) 5:42 PM CST (1/11)
Length of Visible Light 10h 45m
Length of Day
9h 48m
Waning Crescent, 0% of the Moon is Illuminated
Jan 11
Waning Crescent
Jan 11
New
Jan 18
First Quarter
Jan 26
Full
Feb 3
Last Quarter

Hourly Weather History & Observations

Time (CST) Temp. Windchill Dew Point Humidity Pressure Visibility Wind Dir Wind Speed Gust Speed Precip Events Conditions
12:43 AM 50.0 °F - 48.2 °F 94% 29.81 in 5.0 mi South 12.7 mph - N/A   Overcast
12:52 AM 50.0 °F - 48.0 °F 93% 29.81 in 5.0 mi South 11.5 mph 18.4 mph N/A   Overcast
1:30 AM 51.8 °F - 48.2 °F 88% 29.81 in 7.0 mi SSW 11.5 mph 18.4 mph N/A   Overcast
1:52 AM 51.1 °F - 48.0 °F 89% 29.81 in 8.0 mi South 11.5 mph - N/A   Overcast
1:59 AM 51.8 °F - 48.2 °F 88% 29.81 in 8.0 mi South 9.2 mph - N/A   Overcast
2:03 AM 51.8 °F - 48.2 °F 88% 29.81 in 8.0 mi South 9.2 mph - N/A   Overcast
2:42 AM 50.0 °F - 48.2 °F 94% 29.80 in 9.0 mi South 9.2 mph - N/A   Overcast
2:52 AM 50.0 °F - 46.9 °F 89% 29.80 in 9.0 mi South 9.2 mph - N/A   Mostly Cloudy
3:06 AM 50.0 °F - 46.4 °F 87% 29.80 in 8.0 mi South 8.1 mph - N/A   Mostly Cloudy
3:29 AM 50.0 °F - 46.4 °F 87% 29.79 in 9.0 mi South 9.2 mph 16.1 mph N/A   Overcast
3:52 AM 48.9 °F - 46.9 °F 93% 29.79 in 9.0 mi South 11.5 mph 19.6 mph N/A   Overcast
4:52 AM 48.0 °F - 45.0 °F 89% 29.76 in 10.0 mi South 10.4 mph 18.4 mph N/A   Mostly Cloudy
5:18 AM 48.2 °F - 44.6 °F 87% 29.75 in 10.0 mi South 15.0 mph 19.6 mph N/A   Scattered Clouds
5:44 AM 46.4 °F 41.5 °F 44.6 °F 93% 29.76 in 10.0 mi South 10.4 mph 18.4 mph N/A   Mostly Cloudy
5:52 AM 46.9 °F - 44.1 °F 90% 29.74 in 10.0 mi South 9.2 mph 19.6 mph N/A   Mostly Cloudy
6:07 AM 46.4 °F 41.5 °F 42.8 °F 87% 29.75 in 10.0 mi South 10.4 mph - N/A   Scattered Clouds
6:29 AM 46.4 °F 42.4 °F 42.8 °F 87% 29.74 in 10.0 mi South 8.1 mph - N/A   Mostly Cloudy
6:41 AM 46.4 °F 41.9 °F 42.8 °F 87% 29.73 in 10.0 mi South 9.2 mph - N/A   Scattered Clouds
6:52 AM 46.0 °F 41.9 °F 43.0 °F 89% 29.74 in 10.0 mi South 8.1 mph - N/A   Partly Cloudy
7:52 AM 46.9 °F - 43.0 °F 86% 29.75 in 10.0 mi South 8.1 mph 16.1 mph N/A   Clear
8:52 AM 48.9 °F - 43.0 °F 80% 29.75 in 10.0 mi South 10.4 mph 17.3 mph N/A   Clear
10:52 AM 55.9 °F - 45.0 °F 67% 29.74 in 10.0 mi South 18.4 mph 31.1 mph N/A   Clear
11:52 AM 57.9 °F - 45.0 °F 62% 29.72 in 10.0 mi South 15.0 mph 25.3 mph N/A   Clear
12:52 PM 61.0 °F - 46.0 °F 58% 29.68 in 10.0 mi South 13.8 mph 23.0 mph N/A   Clear
1:52 PM 61.0 °F - 45.0 °F 56% 29.67 in 10.0 mi South 11.5 mph 20.7 mph N/A   Clear
2:52 PM 60.1 °F - 44.1 °F 55% 29.65 in 10.0 mi South 13.8 mph 21.9 mph N/A   Clear
3:52 PM 63.0 °F - 45.0 °F 52% 29.65 in 10.0 mi South 12.7 mph 23.0 mph N/A   Clear
4:52 PM 62.1 °F - 45.0 °F 53% 29.65 in 10.0 mi South 11.5 mph 20.7 mph N/A   Clear
5:52 PM 61.0 °F - 45.0 °F 56% 29.66 in 10.0 mi South 9.2 mph - N/A   Clear
6:52 PM 60.1 °F - 45.0 °F 57% 29.67 in 10.0 mi South 10.4 mph - N/A   Clear
7:52 PM 62.1 °F - 44.1 °F 52% 29.69 in 10.0 mi South 12.7 mph 20.7 mph N/A   Clear
8:52 PM 61.0 °F - 44.1 °F 54% 29.70 in 10.0 mi South 12.7 mph 21.9 mph N/A   Clear
9:52 PM 54.0 °F - 46.0 °F 75% 29.72 in 10.0 mi South 15.0 mph 23.0 mph N/A   Clear
10:52 PM 60.1 °F - 46.9 °F 62% 29.77 in 10.0 mi SW 11.5 mph - N/A   Mostly Cloudy
11:52 PM 59.0 °F - 46.0 °F 62% 29.79 in 10.0 mi WSW 8.1 mph - N/A   Overcast